Terminal Aerodrome Forecast
Issued by NWS

Home | Current Version | Previous Version | Text Only | Print | Product List | Glossary On
Versions: 1 2 3 4 5 6 7 8 9 10 11 12 13 14 15 16 17 18 19 20 21 22 23 24 25 26 27 28 29 30
000
FTAK31 PANC 172330
TAFAVD
TAF
PAVD 172330Z 1800/1824 VRB05KT 5SM -RA BR BKN030 OVC050
      TEMPO 1800/1804 3SM -RA BR
     FM181200 VRB03KT P6SM VCSH SCT030 BKN045 OVC070
      AMD LTD TO CLD VIS AND WIND=

USA.gov is the U.S. government's official web portal to all federal, state and local government web resources and services.